When you browse on this site, cookies collect data to enhance your experience and personalize the content and advertising you see.
Visit our Privacy Policy to learn more. By continuing to use the site, you agree to this use of cookies and data.
  • In Czech Republic
  • List of Countries
  • For 7 days
  • Water Temperature
  • Satellite Maps
  • Weather Map
  • Weather Widgets
  • user-avatar
    Login

    Hourly Weather West and East Lealman

    Today, 21 April, Sunday

    Time Temperature Precipitation Wind Pressure Humidity
    00:00 +20°C° 0 mm 6 mps 762 mmHg 52%
    01:00 +20°C° 0 mm 5 mps 762 mmHg 50%
    02:00 +20°C° 0 mm 5 mps 762 mmHg 48%
    03:00 +20°C° 0 mm 4 mps 762 mmHg 46%
    04:00 +20°C° 0 mm 4 mps 762 mmHg 46%
    05:00 +20°C° 0 mm 4 mps 763 mmHg 45%
    06:00 +20°C° 0 mm 4 mps 763 mmHg 45%
    07:00 +21°C° 0 mm 4 mps 763 mmHg 42%
    08:00 +22°C° 0 mm 4 mps 764 mmHg 39%
    09:00 +23°C° 0 mm 5 mps 764 mmHg 36%
    10:00 +23°C° 0 mm 5 mps 764 mmHg 35%
    11:00 +25°C° 0 mm 5 mps 764 mmHg 34%
    12:00 +25°C° 0 mm 5 mps 764 mmHg 32%
    13:00 +25°C° 0 mm 5 mps 764 mmHg 34%
    14:00 +25°C° 0 mm 5 mps 763 mmHg 35%
    15:00 +24°C° 0 mm 6 mps 763 mmHg 36%
    16:00 +23°C° 0 mm 5 mps 763 mmHg 38%
    17:00 +22°C° 0 mm 5 mps 763 mmHg 40%
    18:00 +21°C° 0 mm 5 mps 763 mmHg 42%
    19:00 +21°C° 0 mm 4 mps 764 mmHg 43%
    20:00 +21°C° 0 mm 4 mps 764 mmHg 44%
    21:00 +20°C° 0 mm 4 mps 765 mmHg 44%
    22:00 +20°C° 0 mm 4 mps 765 mmHg 45%
    23:00 +20°C° 0 mm 4 mps 765 mmHg 46%

    Tomorrow, 22 April, Monday

    Time Temperature Precipitation Wind Pressure Humidity
    00:00 +20°C° 0 mm 4 mps 765 mmHg 47%
    01:00 +20°C° 0 mm 4 mps 764 mmHg 47%
    02:00 +19°C° 0 mm 4 mps 764 mmHg 47%
    03:00 +19°C° 0 mm 4 mps 764 mmHg 47%
    04:00 +19°C° 0 mm 4 mps 764 mmHg 47%
    05:00 +19°C° 0 mm 4 mps 764 mmHg 47%
    06:00 +18°C° 0 mm 4 mps 765 mmHg 47%
    07:00 +20°C° 0 mm 4 mps 765 mmHg 44%
    08:00 +22°C° 0 mm 4 mps 765 mmHg 40%
    09:00 +23°C° 0 mm 4 mps 765 mmHg 37%
    10:00 +25°C° 0 mm 3 mps 765 mmHg 36%
    11:00 +26°C° 0 mm 2 mps 765 mmHg 35%
    12:00 +27°C° 0 mm 1 mps 765 mmHg 34%
    13:00 +28°C° 0 mm 2 mps 764 mmHg 34%
    14:00 +28°C° 0 mm 3 mps 763 mmHg 34%
    15:00 +29°C° 0 mm 3 mps 763 mmHg 34%
    16:00 +28°C° 0 mm 3 mps 763 mmHg 37%
    17:00 +27°C° 0 mm 4 mps 763 mmHg 40%
    18:00 +26°C° 0 mm 4 mps 763 mmHg 43%
    19:00 +26°C° 0 mm 4 mps 763 mmHg 46%
    20:00 +25°C° 0 mm 4 mps 764 mmHg 50%
    21:00 +23°C° 0 mm 4 mps 764 mmHg 53%
    22:00 +22°C° 0 mm 4 mps 764 mmHg 54%
    23:00 +22°C° 0 mm 4 mps 764 mmHg 55%

    Day after tomorrow, 23 April, Tuesday

    Time Temperature Precipitation Wind Pressure Humidity
    00:00 +21°C° 0 mm 4 mps 764 mmHg 56%
    01:00 +21°C° 0 mm 3 mps 763 mmHg 57%
    02:00 +20°C° 0 mm 3 mps 763 mmHg 58%
    03:00 +20°C° 0 mm 3 mps 763 mmHg 59%
    04:00 +20°C° 0 mm 3 mps 763 mmHg 60%
    05:00 +20°C° 0 mm 3 mps 763 mmHg 60%
    06:00 +20°C° 0 mm 3 mps 764 mmHg 61%
    07:00 +21°C° 0 mm 3 mps 764 mmHg 57%
    08:00 +24°C° 0 mm 3 mps 764 mmHg 53%
    09:00 +26°C° 0 mm 3 mps 764 mmHg 49%
    10:00 +27°C° 0 mm 3 mps 764 mmHg 46%
    11:00 +28°C° 0 mm 2 mps 764 mmHg 44%
    12:00 +29°C° 0 mm 2 mps 763 mmHg 41%
    13:00 +29°C° 0 mm 2 mps 763 mmHg 41%
    14:00 +30°C° 0 mm 3 mps 762 mmHg 40%
    15:00 +30°C° 0 mm 3 mps 761 mmHg 40%
    16:00 +29°C° 0 mm 4 mps 762 mmHg 43%
    17:00 +28°C° 0 mm 4 mps 762 mmHg 47%
    18:00 +28°C° 0 mm 4 mps 762 mmHg 51%
    19:00 +27°C° 0 mm 4 mps 762 mmHg 53%
    20:00 +26°C° 0 mm 4 mps 763 mmHg 56%
    21:00 +25°C° 0 mm 4 mps 763 mmHg 59%
    22:00 +25°C° 0 mm 4 mps 763 mmHg 61%
    23:00 +23°C° 0 mm 4 mps 762 mmHg 62%

    24 April, Wednesday

    Time Temperature Precipitation Wind Pressure Humidity
    00:00 +22°C° 0 mm 4 mps 762 mmHg 64%
    01:00 +22°C° 0 mm 4 mps 762 mmHg 66%
    02:00 +21°C° 0 mm 3 mps 762 mmHg 67%
    03:00 +21°C° 0 mm 3 mps 761 mmHg 68%
    04:00 +21°C° 0 mm 3 mps 762 mmHg 69%
    05:00 +21°C° 0 mm 3 mps 762 mmHg 69%
    06:00 +21°C° 0 mm 3 mps 762 mmHg 70%
    07:00 +22°C° 0 mm 3 mps 762 mmHg 64%
    08:00 +25°C° 0 mm 3 mps 763 mmHg 59%
    09:00 +26°C° 0 mm 3 mps 763 mmHg 53%
    10:00 +27°C° 0 mm 2 mps 763 mmHg 50%
    11:00 +28°C° 0 mm 2 mps 762 mmHg 47%
    12:00 +30°C° 0 mm 1 mps 762 mmHg 44%
    13:00 +30°C° 0 mm 2 mps 761 mmHg 44%
    14:00 +30°C° 0 mm 3 mps 761 mmHg 44%
    15:00 +30°C° 0 mm 4 mps 761 mmHg 45%
    16:00 +29°C° 0 mm 5 mps 761 mmHg 48%
    17:00 +28°C° 0 mm 5 mps 761 mmHg 52%
    18:00 +27°C° 0 mm 5 mps 761 mmHg 56%
    19:00 +26°C° 0 mm 5 mps 761 mmHg 58%
    20:00 +26°C° 0 mm 4 mps 761 mmHg 59%
    21:00 +26°C° 0 mm 3 mps 762 mmHg 60%
    22:00 +25°C° 0 mm 4 mps 761 mmHg 60%
    23:00 +25°C° 0 mm 4 mps 761 mmHg 60%

    25 April, Thursday

    Time Temperature Precipitation Wind Pressure Humidity
    00:00 +25°C° 0 mm 5 mps 760 mmHg 60%
    01:00 +23°C° 0 mm 5 mps 760 mmHg 62%
    02:00 +23°C° 0 mm 4 mps 760 mmHg 65%
    03:00 +22°C° 0 mm 4 mps 760 mmHg 67%
    04:00 +22°C° 0 mm 4 mps 760 mmHg 67%
    05:00 +22°C° 0 mm 4 mps 761 mmHg 67%
    06:00 +22°C° 0 mm 4 mps 761 mmHg 67%
    07:00 +23°C° 0 mm 4 mps 761 mmHg 61%
    08:00 +26°C° 0 mm 3 mps 762 mmHg 56%
    09:00 +27°C° 0 mm 3 mps 762 mmHg 50%
    10:00 +28°C° 0 mm 3 mps 762 mmHg 48%
    11:00 +29°C° 0 mm 3 mps 762 mmHg 45%
    12:00 +30°C° 0 mm 2 mps 761 mmHg 43%
    13:00 +30°C° 0 mm 3 mps 761 mmHg 44%
    14:00 +30°C° 0 mm 4 mps 761 mmHg 45%
    15:00 +30°C° 0 mm 4 mps 760 mmHg 46%
    16:00 +29°C° 0 mm 4 mps 760 mmHg 49%
    17:00 +28°C° 0 mm 4 mps 760 mmHg 53%
    18:00 +27°C° 0 mm 4 mps 761 mmHg 56%
    19:00 +27°C° 0 mm 3 mps 761 mmHg 59%
    20:00 +26°C° 0 mm 2 mps 761 mmHg 61%
    21:00 +26°C° 0 mm 1 mps 761 mmHg 63%
    22:00 +26°C° 0 mm 1 mps 760 mmHg 62%
    23:00 +26°C° 0 mm 2 mps 760 mmHg 61%

    26 April, Friday

    Time Temperature Precipitation Wind Pressure Humidity
    00:00 +26°C° 0 mm 3 mps 760 mmHg 60%
    01:00 +25°C° 0 mm 4 mps 759 mmHg 62%
    02:00 +25°C° 0 mm 4 mps 759 mmHg 64%
    03:00 +23°C° 0 mm 4 mps 759 mmHg 66%
    04:00 +23°C° 0 mm 4 mps 759 mmHg 67%
    05:00 +23°C° 0 mm 4 mps 759 mmHg 68%
    06:00 +23°C° 0 mm 4 mps 760 mmHg 68%
    07:00 +25°C° 0 mm 4 mps 760 mmHg 67%
    08:00 +26°C° 0 mm 4 mps 760 mmHg 65%
    09:00 +27°C° 0 mm 4 mps 760 mmHg 63%
    10:00 +28°C° 0 mm 4 mps 759 mmHg 59%
    11:00 +29°C° 0 mm 5 mps 759 mmHg 54%
    12:00 +30°C° 0 mm 5 mps 758 mmHg 50%
    13:00 +29°C° 0.1 mm 5 mps 758 mmHg 51%
    14:00 +29°C° 0.1 mm 5 mps 757 mmHg 52%
    15:00 +29°C° 0.1 mm 6 mps 757 mmHg 53%
    16:00 +28°C° 0.5 mm 6 mps 757 mmHg 57%
    17:00 +27°C° 0.5 mm 6 mps 757 mmHg 61%
    18:00 +27°C° 0.5 mm 6 mps 757 mmHg 65%
    19:00 +26°C° 0.1 mm 5 mps 757 mmHg 68%
    20:00 +26°C° 0.1 mm 4 mps 757 mmHg 71%
    21:00 +26°C° 0.1 mm 4 mps 757 mmHg 74%
    22:00 +25°C° 0.4 mm 4 mps 757 mmHg 76%
    23:00 +25°C° 0.4 mm 4 mps 757 mmHg 78%
    Show more